Starlink 33860

operational
NORAD ID: 64033 Int'l Des: 2025-102 Owner: SPXS Country: US Constellation: starlink
LEOCIRCULAR

Starlink 33860について

説明を読み込み中...

リアルタイム位置

3D地球を読み込み中...

次回通過

高度履歴

Altitude vs Time

uPlot chart will show altitude changes over time

軌道要素

1 64033U 25102M 26095.59529344 .00005751 00000-0 48956-3 0 9992
2 64033 70.0033 46.5636 0002683 263.0952 96.9902 14.98317143 49994
Epoch: Apr 5, 2026 • Age: 7 hours

現在のステータス

高度 584.9 km
速度 7.57 km/s
衛星直下点 67.50°N, 13.6°E
打ち上げ日 May 16, 2025
運用期間 0.8 years
タイプ internet

技術仕様

分類 Payload
質量 575.00 kg
乾燥質量 530.00 kg
総質量 575.00 kg
長さ 0.30 m
直径 4.10 m
スパン 29.00 m
形状 Box + pan
製造者 SPXS
バスタイプ Starlink V2MO
フェーズステータス In Orbit
所有者/国 SPXS/US

大規模コンステレーション

Loading constellations...